NOAA 16 DEB, 41067

Orbit data source: Space-Track

NOAA 16 DEB, 41067 is space debris in SSO originally from a launch on Thu, 21 Sep 2000 UTC launched from the Air Force Western Test Range (AFWTR). Debris objects in space refer to the collection of defunct objects orbiting the Earth. Examples of debris include non-operational satellites, rocket bodies, and fragments generated from explosions, collisions, or faulty payload assembly.

Loading next visibility...
Identifier
41067, 2000-055AA
Orbit
SSO
Country
Flag of USUS
Related business
Manufacturer
Unknown
Mission
Spacecraft
Bus & Motor
Unknown
Mass
Unknown
Launch date (UTC)
2000-09-21 (25 years ago)
Launch vehicle
Unknown
Launch site
Air Force Western Test Range (AFWTR)
Object type
Payload
Rocket body
Debris
Shape & HBR
Unknown shape, 0.1 m
Radar Cross Section
Small (<0.1 m²)

Expand to show TLE details & history
Last TLE update: 20 hours ago

TLE from 20 hours ago
0 NOAA 16 DEB
1 41067U 00055AA  26036.32692112  .00001472  00000-0  74213-3 0  9995
2 41067  98.5342  75.0064 0003040 302.5302  57.5579 14.17781075526120
Epoch: 2026-02-05T07:50Z
TLE epoch observation values (Epoch: 2026-02-05T07:50:45.984Z)
Latitude
-0.00012°
Longitude
-178.16593°
Altitude
834.608 km
Speed
7.436 km/s
True Right ascension
05h 00m 01s
True Declination
0° 00' 00"
Sunlit
Object was in daylight at epoch
Visualization orbit readout
Latitude
Unknown
Longitude
Unknown
Altitude
Unknown
Speed
Unknown
Apparent Right ascension
Unknown
Apparent Declination
Unknown
Sunlit
N/A
Visualization observer readout
Local Sidereal Time
06:09:58
Azimuth
Unknown
Elevation
Unknown
Doppler factor
Unknown
Orbital elements
Apogee altitude
832.211 km
Perigee altitude
827.829 km
Semi-major axis
7,208.157 km
Eccentricity
0.0003
Inclination
98.5342°
RAAN
75.0064°
Arg. of periapsis
302.5302°
True anomaly
57.58731°
Mean anomaly
57.5579°
Eccentric anomaly
57.5726°
Mean motion
3.54656 °/min
Orbital period
101.51 mins
BSTAR
0.00074213
Loading maneuver chart data...
Computing Atmospheric mass density...
Loading historical data...
Loading historical data...
Loading historical data...
Loading historical data...
Loading historical data...
Loading historical data...
Loading historical data...

Documentation

Showing up to 5 results
|